{"data":{"norad_id":53693,"intl_designator":"2022-105AX","name":"STARLINK-4566","alt_names":[],"object_type":"PAYLOAD","status":"ACTIVE","operator":null,"country":"US","launch_date":"2022-08-31","launch_site_code":"AFWTR","launch_vehicle":null,"mission":null,"orbit_class":"UNKNOWN","rcs_meters":null,"size_class":null,"mass_kg":null,"dimensions":null,"purposes":["comms"],"wikipedia_slug":null,"has_3d_model":false,"image_url":null,"decayed_at":null,"tle_current":{"epoch":"2026-09-20T05:40:09.282720Z","epoch_age_seconds":104489,"freshness":"FRESH","line1":"1 53693U 22105AX  26263.23621855 -.00015216  00000+0 -46918-3 0  9994","line2":"2 53693  97.2857 139.9722 0002071  57.8158 302.3286 15.33494058222702","mean_motion":15.33494058,"eccentricity":0.0002071,"inclination_deg":97.2857,"raan_deg":139.9722,"arg_perigee_deg":57.8158,"mean_anomaly_deg":302.3286,"bstar":-0.00046918,"rev_number":22270,"period_min":93.903200503957,"perigee_km":463.97992034042,"apogee_km":466.8145122128,"semimajor_km":6843.5342162766,"source":"CELESTRAK","updated_at":"2026-09-21T09:00:32.981106Z"}}}